[[{"header":{"parameterUnit":"m.s-1","parameterCategory":1,"la1":30.2992,"la2":30.254,"lo1":-89.0895,"lo2":-89.0443,"dy":0.0025,"dx":0.0025,"nx":19,"ny":19,"refTime":"2026-04-19T03:00:00:Z","depth":0,"parameterNumber":2,"parameterNumberName":"U-component_of_WINDS"},"data":[0,0,0,-6.2352,-6.2357,-6.2554,-6.2554,-6.2873,-6.2877,0,0,0,0,0,0,0,0,0,0,0,-6.2333,-6.2336,-6.2351,-6.2357,-6.2554,-6.2554,-6.2873,-6.2877,0,0,0,0,0,0,0,0,0,0,0,-6.2331,-6.2335,-6.234,-6.2358,-6.2554,-6.2554,-6.2872,-6.27,0,0,0,0,0,0,0,0,0,0,-6.2497,-6.2518,-6.2334,-6.234,-6.2359,-6.2554,-6.2554,-6.269,-6.271,-6.2812,0,-6.2913,0,-6.29,-6.2902,-6.2904,0,0,0,-6.2328,-6.2502,-6.2519,-6.234,-6.2362,-6.2553,-6.2457,-6.2701,-6.2724,-6.284,-6.2916,-6.2926,-6.2905,-6.2905,-6.2907,-6.3591,-6.3595,0,0,-6.2317,-6.239,-6.2503,-6.2535,-6.2508,-6.2451,-6.2463,-6.2713,-6.2803,-6.2917,-6.2933,-6.2911,-6.2907,-6.291,-6.3586,-6.3592,0,0,0,-6.2306,-6.2384,-6.2393,-6.2524,-6.2554,-6.2457,-6.2472,-6.2791,-6.2788,-6.2936,-6.2914,-6.2909,-6.2914,-6.3581,-6.3588,-6.3887,0,0,0,-6.2298,-6.2376,-6.239,-6.2436,-6.2551,-6.2675,-6.2545,-6.2771,-6.2797,-6.2913,-6.291,-6.2918,-6.3576,-6.3585,-6.3868,-6.4018,0,0,0,-6.2306,-6.2377,-6.2419,-6.244,-6.2527,-6.2669,-6.268,-6.2775,-6.2786,-6.2904,-6.2919,-6.3572,-6.3583,-6.385,-6.3989,-6.4222,0,0,0,-6.2337,-6.2681,-6.2425,-6.28,-6.2526,-6.2851,-6.2677,-6.2916,-6.3052,-6.2911,-6.3577,-6.3587,-6.3845,-6.3972,-6.4204,-6.4434,-6.4535,0,0,-6.2811,-6.274,-6.2955,-6.2732,-6.3122,-6.2815,-6.3249,-6.3305,-6.3249,-6.348,-6.3496,-6.3874,-6.3987,-6.4218,-6.507,-6.5151,0,0,0,-6.313,-6.3287,-6.3373,-6.3507,-6.3557,-6.3614,-6.3595,-6.3616,-6.3808,-6.3383,-6.4016,-6.4081,-6.4214,-6.432,-6.439,-6.4501,-6.3638,-6.3637,-6.3636,-6.391,-6.3819,-6.417,-6.4104,-6.4235,-6.4213,-6.4312,-6.4336,-6.4206,-6.4358,-6.4428,-6.4955,-6.5083,-6.5134,-6.5251,-6.4537,-6.4538,-6.4539,-6.454,-6.46,-6.4809,-6.4627,-6.4902,-6.4806,-6.5036,-6.5028,-6.4928,-6.513,-6.4894,-6.5007,-6.4762,-6.5226,-6.5324,-6.4562,-6.4558,-6.4555,-6.4553,-6.4551,-6.5105,-6.5189,-6.5207,-6.5391,-6.5543,-6.5462,-6.5665,-6.5568,-6.5478,-6.5589,-6.5654,-6.5649,-6.5636,-6.5626,-6.5628,-6.5629,-6.5631,-6.5632,-6.5633,-6.5623,-6.5633,-6.5816,-6.5898,-6.5971,-6.6056,-6.6035,-6.6105,-6.6158,-6.6072,-6.6072,-6.5931,-6.5286,-6.5129,-6.5662,-6.5657,-6.5653,-6.565,-6.5648,-6.6366,-6.6182,-6.6465,-6.6539,-6.6627,-6.6787,-6.6658,-6.6809,-6.6852,-6.6956,-6.6789,-6.6326,-6.6248,-6.6192,-6.6062,-6.6804,-6.6804,-6.6804,-6.6804,-6.6796,-6.6744,-6.7012,-6.7137,-6.7247,-6.716,-6.7485,-6.7473,-6.7431,-6.7453,-6.733,-6.7147,-6.7094,-6.7047,-6.6973,-6.685,-6.7777,-6.7778,-6.7778,-6.7249,-6.7204,-6.75,-6.7455,-6.7517,-6.7574,-6.7877,-6.8029,-6.7943,-6.7816,-6.7469,-6.7428,-6.7131,-6.7039,-6.691,-6.6797,-6.6569,0,0]},{"header":{"parameterUnit":"m.s-1","parameterCategory":1,"la1":30.2992,"la2":30.254,"lo1":-89.0895,"lo2":-89.0443,"dy":0.0025,"dx":0.0025,"nx":19,"ny":19,"refTime":"2026-04-19T03:00:00:Z","depth":0,"parameterNumber":3,"parameterNumberName":"V-component_of_WINDS"},"data":[0,0,0,-3.9834,-3.9836,-3.9918,-3.9918,-4.0033,-4.0034,0,0,0,0,0,0,0,0,0,0,0,-3.9818,-3.9819,-3.9834,-3.9836,-3.9918,-3.9918,-4.0033,-4.0034,0,0,0,0,0,0,0,0,0,0,0,-3.9818,-3.9819,-3.982,-3.9836,-3.9918,-3.9918,-4.0033,-3.9967,0,0,0,0,0,0,0,0,0,0,-3.9885,-3.988,-3.9819,-3.9821,-3.9837,-3.9918,-3.9918,-3.9963,-3.9971,-4.0001,0,-4.0033,0,-4.0035,-4.0043,-4.0043,0,0,0,-3.9829,-3.9874,-3.9888,-3.9821,-3.9838,-3.9918,-3.9879,-3.9967,-3.9976,-4.0011,-4.0034,-4.0038,-4.0037,-4.0044,-4.0044,-4.0246,-4.0247,0,0,-3.9824,-3.9837,-3.9882,-3.9894,-3.9885,-3.9876,-3.9882,-3.9972,-3.9997,-4.0034,-4.004,-4.0039,-4.0044,-4.0045,-4.0245,-4.0246,0,0,0,-3.9816,-3.9835,-3.9846,-3.989,-3.9904,-3.9879,-3.9885,-3.9993,-3.9996,-4.0042,-4.0041,-4.0045,-4.0047,-4.0243,-4.0245,-4.032,0,0,0,-3.9813,-3.983,-3.9845,-3.9853,-3.9902,-3.995,-3.9904,-3.999,-4.0,-4.004,-4.0045,-4.0048,-4.0242,-4.0244,-4.0315,-4.0353,0,0,0,-3.981,-3.9829,-3.9844,-3.9854,-3.989,-3.9948,-3.9956,-3.9992,-3.9999,-4.0043,-4.0048,-4.0241,-4.0244,-4.031,-4.0345,-4.0408,0,0,0,-3.981,-3.991,-3.9846,-3.9957,-3.9889,-3.9995,-3.9955,-4.0033,-4.008,-4.0046,-4.0242,-4.0245,-4.0309,-4.0341,-4.0403,-4.0462,-4.0489,0,0,-3.9944,-3.9927,-3.9991,-3.9936,-4.0056,-3.9981,-4.0111,-4.0142,-4.0134,-4.0208,-4.0213,-4.0316,-4.0345,-4.0407,-4.0634,-4.0655,0,0,0,-4.0038,-4.0084,-4.0113,-4.0158,-4.0184,-4.0208,-4.0217,-4.0227,-4.029,-4.0176,-4.0356,-4.0373,-4.0409,-4.0436,-4.0454,-4.0483,-4.0259,-4.0259,-4.0258,-4.0245,-4.0229,-4.0333,-4.0327,-4.0371,-4.0378,-4.0411,-4.0426,-4.0398,-4.0441,-4.0463,-4.0602,-4.0635,-4.0648,-4.0679,-4.0494,-4.0494,-4.0494,-4.0494,-4.0438,-4.05,-4.0458,-4.0544,-4.0526,-4.0597,-4.0606,-4.0583,-4.0645,-4.0585,-4.0616,-4.055,-4.0672,-4.0697,-4.05,-4.0499,-4.0498,-4.0498,-4.0497,-4.0571,-4.0598,-4.0609,-4.0671,-4.072,-4.0709,-4.077,-4.0751,-4.0734,-4.0764,-4.0783,-4.0782,-4.0777,-4.0775,-4.0775,-4.0776,-4.0776,-4.0777,-4.0777,-4.0704,-4.0714,-4.0769,-4.0803,-4.0828,-4.0858,-4.0864,-4.0888,-4.0908,-4.089,-4.089,-4.0855,-4.0688,-4.0645,-4.0784,-4.0783,-4.0782,-4.0781,-4.0781,-4.0903,-4.0854,-4.0939,-4.0964,-4.1,-4.1048,-4.1023,-4.1072,-4.1088,-4.1118,-4.1077,-4.0957,-4.0938,-4.0924,-4.0888,-4.1082,-4.1082,-4.1082,-4.1082,-4.1014,-4.1003,-4.1083,-4.1123,-4.1161,-4.1146,-4.1238,-4.1243,-4.124,-4.1248,-4.1218,-4.1169,-4.1156,-4.1145,-4.1126,-4.1092,-4.1333,-4.1333,-4.1334,-4.1134,-4.1125,-4.1209,-4.1206,-4.1232,-4.1254,-4.1339,-4.1386,-4.1372,-4.1343,-4.1254,-4.1243,-4.1165,-4.1141,-4.1109,-4.108,-4.1018,0,0]}]]